Погода в Ольшанах

Беларусь     52°04′35″N   27°20′50″E
темп.,
°C
ветер,
м/с
пор.,
м/с
влажн.,
%
обл.,
%
осадки,
мм/ч
давл.,
гПа
погр.,
м
13 апреля, вт
вт1300:00+8юв387798 0.0 1020187
03:00+7ююв248542 0.0 101964
06:00+6вюв3385100 0.0 102049
09:00+10вюв3568100 0.0 1019270
12:00+16вюв334968 0.0 1018951
15:00+17в3250100 0.0 10161546
18:00+13вюв3671100 0.0 1016445
21:00+11вюв3779100 0.0 1016285
14 апреля, ср
ср1400:00+10вюв2585100 0.1 1015213
03:00+9в2387100 0.2 101587
06:00+9в2389100 0.0 1014116
09:00+9в2483100 0.0 1013331
12:00+11вюв2375100 0.0 1013769
15:00+9юв3692100 0.8 1013391
18:00+9юв3695100 1.3 1013362
21:00+8вюв3696100 2.4 1014308
15 апреля, чт
чт1500:00+8ююв2697100 1.2 1013275
03:00+8ююв1298100 1.9 101351
06:00+7ссз1298100 2.1 101444
09:00+8св249595 2.3 1014212
12:00+13ссв447065 0.9 1014824
15:00+14ссв446163 2.8 10131253
18:00+13с4669100 1.7 1012642
21:00+10ссв4891100 2.8 1013401
16 апреля, пт
пт1600:00+8с5894100 1.6 1012438
03:00+7с4895100 2.8 1011435
06:00+7с4895100 0.6 1011427
09:00+8ссв3796100 0.8 1011341
12:00+12всв4671100 1.0 10111118
15:00+14всв466299 2.0 10111397
18:00+11в4883100 2.3 1012622
21:00+8всв23926 3.6 101450
17 апреля, сб
сб1700:00+6в229299 0.0 101519
03:00+7в239095 0.0 101666
06:00+6всв269153 0.0 1017196
09:00+7в477810 0.0 1018705
12:00+8в4773100 0.0 1019994
15:00+9в4672100 0.1 10201100
18:00+8в367468 0.1 1020865
21:00+7вюв2486100 0.1 1020140